• Join FlightAware (Why Join?)
  • Login
  • US Flag 
02:58AM EDT


 

Airport Tracker/Info


-or-


 

Live Flight TrackerFlight Track Log ✈ UAL4553 ✈ 24-Apr-2013 ✈ KIAH - KLFT

Flight Track Log - Related Links

Times and Time Zones

All times are in EDT time to prevent confusion due to time zone crossing. See the UAL4553 flight status page for this flight to view local times or setup timezone preferences in your user account.

Time Position Orientation Groundspeed Altitude Reporting Facility
EDT Latitude Longitude Course Direction KTS MPH feet Rate Location/Type
08:14PM 29.9767 -95.3008 124° Southeast 177 204 800  Level Houston Center
08:15PM 29.9639 -95.2786 124° Southeast 180 207 2,000 2,040 Climbing Houston Center
08:16PM 29.9192 -95.2450 147° Southeast 257 296 3,500 1,980 Climbing Houston Center
08:16PM 29.9117 -95.2344 129° Southeast 232 267 4,100 1,860 Climbing Houston Center
08:17PM 29.8942 -95.1528 104° East 262 302 6,100 2,280 Climbing Houston Center
08:18PM 29.9064 -95.0439 83° East 282 325 8,900 1,920 Climbing Houston Center
08:19PM 29.9200 -94.9400 81° East 317 365 10,100 1,200 Climbing Houston Center
08:20PM 29.9344 -94.8242 82° East 357 411 11,400 1,320 Climbing Houston Center
08:21PM 29.9492 -94.7036 82° East 374 430 12,900 1,200 Climbing Houston Center
08:22PM 29.9639 -94.5781 82° East 392 451 13,900 960 Climbing Houston Center
08:23PM 29.9808 -94.4372 82° East 409 471 15,000 960 Climbing Houston Center
08:24PM 29.9958 -94.3044 83° East 417 480 16,000 900 Climbing Houston Center
08:25PM 30.0133 -94.1708 81° East 423 487 16,900 780 Climbing Houston Center
08:26PM 30.0300 -94.0361 82° East 427 491 17,700 960 Climbing Houston Center
08:27PM 30.0503 -93.8722 82° East 432 497 18,900 960 Climbing Houston Center
08:29PM 30.0664 -93.7336 82° East 438 504 19,800 900 Climbing Houston Center
08:30PM 30.0839 -93.5922 82° East 449 517 20,800 540 Climbing Houston Center
08:31PM 30.1008 -93.4483 82° East 463 533 21,000 60 Climbing Houston Center
08:32PM 30.1181 -93.2972 82° East 480 552 21,000 -60 Level Houston Center
08:33PM 30.1389 -93.1158 82° East 480 552 20,900 -1,140 Descending Houston Center
08:34PM 30.1478 -92.9658 86° East 475 547 18,700 -2,280 Descending Houston Center
08:35PM 30.1556 -92.8258 86° East 446 513 16,200 -2,280 Descending Houston Center
08:36PM 30.1617 -92.6944 87° East 419 482 14,000 -2,040 Descending Houston Center
08:37PM 30.1672 -92.5767 87° East 371 427 12,000 -1,800 Descending Houston Center
08:38PM 30.1725 -92.4733 87° East 328 377 10,300 -1,800 Descending Houston Center
08:39PM 30.1772 -92.3558 87° East 312 359 8,400 -1,740 Descending Houston Center
08:40PM 30.1506 -92.2769 111° Southeast 290 334 6,800 -1,440 Descending Houston Center
08:41PM 30.0917 -92.2264 143° Southeast 268 308 5,500 -1,380 Descending Houston Center
08:42PM 30.0492 -92.1661 129° Southeast 248 285 4,000 -1,200 Descending Houston Center
08:43PM 30.0708 -92.1081 67° East 219 252 3,100 -780 Descending Houston Center
08:44PM 30.1128 -92.0669 40° Northeast 202 232 2,500 -600 Descending Houston Center